Location: Peach Mountain Observatory
(42.3967°N, 83.9367°W)
Time: 13:41:19
(UTC-05:00)

deb Explorer IX - All Passes

Search period start: 20 January 2020 00:00
Search period end: 30 January 2020 00:00
Orbit: 548 x 1101 km, 38.8° (Epoch: 19 January)

Date Brightness Start Highest point End Pass type
(mag) Time Alt. Az. Time Alt. Az. Time Alt. Az.
20 Jan - 01:12:44 10° WSW 01:19:50 56° SSE 01:26:27 10° E night (unlit)
20 Jan - 03:00:00 10° W 03:07:03 65° S 03:13:18 10° ESE visible
20 Jan - 04:47:43 10° W 04:53:57 41° SSW 04:59:25 10° SE visible
20 Jan - 06:36:56 10° WSW 06:40:00 14° SW 06:42:52 10° S visible
20 Jan - 23:04:25 10° SSW 23:10:32 30° SSE 23:16:35 10° E night (unlit)
21 Jan - 00:50:16 10° WSW 00:57:24 57° SSE 01:04:09 10° E night (unlit)
21 Jan - 02:37:31 10° W 02:44:39 65° S 02:51:04 10° ESE night (unlit)
21 Jan - 04:25:12 10° W 04:31:35 42° SSW 04:37:12 10° SE visible
21 Jan - 06:14:25 10° WSW 06:17:40 15° SW 06:20:43 10° S visible
21 Jan - 22:42:00 10° SSW 22:48:05 30° SSE 22:54:12 10° E night (unlit)
22 Jan - 00:27:49 10° WSW 00:34:58 57° SSE 00:41:49 10° E night (unlit)
22 Jan - 02:15:02 10° W 02:22:13 65° S 02:28:47 10° ESE night (unlit)
22 Jan - 04:02:42 10° W 04:09:12 42° SSW 04:14:59 10° SE visible
22 Jan - 05:51:53 10° WSW 05:55:19 15° SW 05:58:32 10° S visible
22 Jan - 22:19:34 10° SSW 22:25:38 30° SSE 22:31:48 10° E night (unlit)
23 Jan - 00:05:22 10° WSW 00:12:30 58° SSE 00:19:27 10° E night (unlit)
23 Jan - 01:52:34 10° W 01:59:47 66° S 02:06:30 10° ESE night (unlit)
23 Jan - 03:40:12 10° W 03:46:48 42° SSW 03:52:44 10° SE visible
23 Jan - 05:29:21 10° WSW 05:32:57 15° SW 05:36:20 10° S visible
23 Jan - 21:57:10 10° SSW 22:03:10 31° SSE 22:09:22 10° E night (unlit)
23 Jan - 23:42:57 10° WSW 23:50:02 58° SSE 23:57:05 10° E night (unlit)
24 Jan - 01:30:05 10° W 01:37:20 66° S 01:44:10 10° ESE night (unlit)
24 Jan - 03:17:42 10° W 03:24:23 42° SSW 03:30:27 10° SE night (unlit)
24 Jan - 05:06:49 10° WSW 05:10:34 16° SW 05:14:05 10° S visible
24 Jan - 21:34:46 10° SSW 21:40:43 31° SSE 21:46:55 10° E visible
24 Jan - 23:20:31 10° WSW 23:27:34 59° SSE 23:34:40 10° E night (unlit)
25 Jan - 01:07:37 10° W 01:14:52 66° S 01:21:49 10° ESE night (unlit)
25 Jan - 02:55:12 10° W 03:01:56 42° SSW 03:08:08 10° SE night (unlit)
25 Jan - 04:44:17 10° WSW 04:48:10 16° SW 04:51:49 10° S visible
25 Jan - 21:12:24 10° SSW 21:18:15 31° SSE 21:24:26 10° E visible
25 Jan - 22:58:07 10° WSW 23:05:05 59° SSE 23:12:14 10° E night (unlit)
26 Jan - 00:45:09 10° W 00:52:23 66° S 00:59:25 10° ESE night (unlit)
26 Jan - 02:32:42 10° W 02:39:29 42° SSW 02:45:48 10° SE night (unlit)
26 Jan - 04:21:45 10° WSW 04:25:44 16° SW 04:29:31 10° S visible
26 Jan - 20:50:02 10° SSW 20:55:47 31° SSE 21:01:57 10° E visible
26 Jan - 22:35:43 10° WSW 22:42:36 59° SSE 22:49:46 10° E visible
27 Jan - 00:22:43 10° W 00:29:54 66° S 00:37:01 10° ESE night (unlit)
27 Jan - 02:10:12 10° W 02:17:00 42° SSW 02:23:26 10° SE night (unlit)
27 Jan - 03:59:14 10° WSW 04:03:18 16° SW 04:07:11 10° S night (unlit)
27 Jan - 20:27:42 10° SSW 20:33:19 31° SSE 20:39:25 10° E visible
27 Jan - 22:13:20 10° WSW 22:20:07 59° SSE 22:27:17 10° E visible
28 Jan - 00:00:17 10° W 00:07:24 66° S 00:14:35 10° ESE night (unlit)
28 Jan - 01:47:43 10° W 01:54:31 42° SSW 02:01:02 10° SE night (unlit)
28 Jan - 03:36:43 10° WSW 03:40:50 16° SW 03:44:49 10° S night (unlit)
28 Jan - 20:05:22 10° SSW 20:10:52 30° SSE 20:16:53 10° E visible
28 Jan - 21:50:58 10° WSW 21:57:37 59° SSE 22:04:46 10° E visible
28 Jan - 23:37:51 10° W 23:44:54 65° S 23:52:08 10° ESE night (unlit)
29 Jan - 01:25:15 10° W 01:32:01 42° SSW 01:38:37 10° SE night (unlit)
29 Jan - 03:14:13 10° WSW 03:18:23 16° SW 03:22:24 10° S night (unlit)
29 Jan - 19:43:03 10° SSW 19:48:25 30° SSE 19:54:20 10° E visible
29 Jan - 21:28:37 10° WSW 21:35:08 59° SSE 21:42:15 10° E visible
29 Jan - 23:15:26 10° W 23:22:24 65° S 23:29:38 10° ESE night (unlit)
